EW6819 Weather Reports


Display with metric or nautical units.
time (UTC)temp
F
wind
direction
speed
MPH
gust
MPH
rain 1hr
in
rain 24hr
in
rain mn
in
humidity
%
barometer
mb
20260506093004 44 17 4.0 10.0 0.11 0.88 0.47 65 1006.6
20260506092503 44 17 5.0 10.0 0.10 0.87 0.46 65 1006.7
20260506092003 44 5 6.0 13.0 0.09 0.85 0.44 65 1006.6
20260506091503 44 358 7.0 14.0 0.08 0.83 0.42 65 1006.6
20260506091003 44 358 6.0 14.0 0.08 0.83 0.42 65 1006.4
20260506090503 44 359 6.0 12.0 0.08 0.82 0.41 65 1006.6
20260506090003 44 360 6.0 12.0 0.09 0.82 0.41 65 1006.7
20260506085503 44 9 5.0 12.0 0.09 0.81 0.40 65 1006.8
20260506085003 45 9 5.0 12.0 0.09 0.80 0.39 65 1006.9
20260506084503 45 5 5.0 12.0 0.09 0.79 0.38 65 1006.7
20260506084003 45 7 5.0 11.0 0.10 0.78 0.37 65 1006.9
20260506083503 45 8 4.0 10.0 0.10 0.78 0.37 65 1006.9
20260506083003 45 6 5.0 10.0 0.11 0.77 0.36 65 1007.1
20260506082503 45 6 4.0 10.0 0.14 0.77 0.36 65 1007.1
20260506082003 45 14 5.0 10.0 0.14 0.76 0.35 65 1007.2
20260506081713 45 13 5.0 10.0 0.17 0.76 0.35 65 1007.1
20260506081003 45 14 5.0 10.0 0.19 0.75 0.34 65 1007.2
20260506080503 45 6 4.0 10.0 0.19 0.74 0.33 65 1007.1
20260506073003 45 354 4.0 10.0 0.14 0.67 0.25 65 1007.0
20260506072503 46 334 4.0 10.0 0.11 0.64 0.22 65 1007.2
20260506072003 46 339 3.0 8.0 0.10 0.63 0.21 65 1007.2
20260506071503 46 19 2.0 5.0 0.07 0.59 0.17 65 1007.0
20260506071003 46 28 2.0 4.0 0.05 0.57 0.15 64 1006.7
20260506070503 46 17 2.0 4.0 0.05 0.56 0.14 64 1006.6
20260506062503 46 0 0.0 0.0 0.04 0.54 0.11 64 1006.8
20260506062213 46 0 0.0 0.0 0.05 0.54 0.11 64 1007.0
20260506061503 46 0 0.0 0.0 0.05 0.53 0.10 64 1007.2
20260506061003 46 0 0.0 0.0 0.06 0.53 0.10 64 1007.3
20260506060503 46 0 0.0 0.0 0.05 0.52 0.09 64 1007.4
20260506060213 46 105 0.0 3.0 0.05 0.52 0.09 64 1007.3
20260506051213 46 82 1.0 4.0 0.04 0.47 0.04 64 1008.5
20260506050714 46 54 1.0 3.0 0.04 0.47 0.04 64 1008.5
20260506050213 46 0 0.0 0.0 0.04 0.47 0.04 64 1008.8
20260506044714 46 136 1.0 4.0 0.01 0.44 0.01 64 1008.6
20260506044003 46 137 1.0 3.0 0.01 0.44 0.01 64 1008.8
20260506043503 46 165 2.0 5.0 0.00 0.43 0.00 63 1008.8
20260506043003 46 49 3.0 8.0 0.00 0.43 0.00 64 1009.5
20260506042503 46 21 3.0 8.0 0.00 0.43 0.00 64 1008.7
20260506042003 46 12 2.0 6.0 0.00 0.43 0.00 63 1008.9
20260506041503 46 16 2.0 7.0 0.00 0.44 0.00 63 1008.6
20260506041003 46 26 1.0 7.0 0.00 0.46 0.00 64 1008.1
20260506040503 46 27 0.0 5.0 0.00 0.47 0.00 63 1008.4
20260506040003 46 0 0.0 0.0 0.00 0.47 0.00 63 1008.5
20260506035503 46 0 0.0 0.0 0.00 0.47 0.47 63 1008.6
20260506035004 46 0 0.0 0.0 0.00 0.47 0.47 63 1008.8
20260506034503 46 0 0.0 0.0 0.00 0.47 0.47 63 1008.6
20260506034003 46 0 0.0 0.0 0.00 0.47 0.47 63 1008.6
20260506033503 46 17 1.0 3.0 0.01 0.47 0.47 63 1008.7
20260506033003 46 17 1.0 3.0 0.02 0.47 0.47 63 1008.7
20260506032503 46 10 2.0 4.0 0.03 0.47 0.47 63 1008.7
20260506032003 46 4 2.0 6.0 0.03 0.47 0.47 63 1008.8
20260506031503 46 358 2.0 6.0 0.04 0.47 0.47 62 1008.8
20260506031003 46 343 1.0 3.0 0.05 0.47 0.47 62 1008.9
20260506030503 46 345 2.0 5.0 0.07 0.47 0.47 62 1008.9
20260506030003 46 353 2.0 5.0 0.09 0.47 0.47 62 1008.8
20260506025713 46 359 2.0 5.0 0.10 0.47 0.47 62 1008.8
20260506025003 46 3 3.0 5.0 0.15 0.47 0.47 62 1008.9
20260506024503 46 2 2.0 5.0 0.16 0.47 0.47 62 1009.0
20260506024003 46 7 2.0 5.0 0.17 0.47 0.47 62 1009.2
20260506023503 46 358 3.0 5.0 0.16 0.46 0.46 61 1009.4
20260506023003 46 356 2.0 5.0 0.16 0.45 0.45 61 1009.0
20260506022503 46 359 2.0 7.0 0.15 0.44 0.44 60 1009.3
20260506022003 46 358 3.0 7.0 0.16 0.44 0.44 60 1009.2
20260506021503 46 359 4.0 10.0 0.16 0.43 0.43 59 1009.2
20260506021214 46 1 4.0 10.0 0.19 0.43 0.43 59 1009.3
20260506020712 46 353 4.0 10.0 0.23 0.41 0.41 59 1009.2
20260506020003 46 341 4.0 9.0 0.23 0.38 0.38 58 1009.5
20260506015503 46 350 4.0 9.0 0.23 0.37 0.37 57 1009.0
20260506015003 47 4 4.0 9.0 0.18 0.32 0.32 57 1009.2
20260506014503 47 15 3.0 9.0 0.17 0.31 0.31 57 1009.0
20260506014003 47 3 2.0 7.0 0.16 0.30 0.30 57 1008.8
20260506013712 47 343 2.0 6.0 0.16 0.30 0.30 57 1008.8
20260506013003 48 351 3.0 7.0 0.16 0.29 0.29 57 1008.9
20260506012503 48 4 2.0 7.0 0.18 0.29 0.29 57 1009.0
20260506012003 48 12 2.0 4.0 0.17 0.28 0.28 57 1008.9
20260506011503 48 20 1.0 3.0 0.17 0.27 0.27 56 1008.9
20260506011003 48 20 1.0 3.0 0.12 0.22 0.22 56 1008.9
20260506010503 48 15 1.0 3.0 0.07 0.17 0.17 57 1008.8
20260506010003 48 7 1.0 3.0 0.05 0.15 0.15 57 1008.7
20260506005503 48 7 1.0 4.0 0.04 0.14 0.14 57 1008.4
20260506005003 49 360 2.0 8.0 0.04 0.14 0.14 57 1008.5
20260506004714 49 8 3.0 8.0 0.04 0.14 0.14 56 1008.4
20260506004003 50 42 3.0 9.0 0.04 0.14 0.14 56 1008.4
20260506003503 51 35 1.0 9.0 0.04 0.14 0.14 57 1008.0
20260506003003 51 351 0.0 3.0 0.03 0.13 0.13 58 1008.4
20260506002503 51 279 1.0 4.0 0.01 0.11 0.11 58 1008.4
20260506002003 51 290 1.0 4.0 0.02 0.11 0.11 59 1008.2
20260506001503 51 309 1.0 4.0 0.01 0.10 0.10 59 1008.0
20260506001003 51 339 1.0 3.0 0.02 0.10 0.10 60 1007.9
20260506000503 51 347 2.0 4.0 0.02 0.10 0.10 60 1007.8
20260506000003 51 343 2.0 8.0 0.02 0.10 0.10 61 1007.8
20260505235503 52 343 4.0 12.0 0.02 0.10 0.10 61 1007.9
20260505235003 52 346 5.0 12.0 0.02 0.10 0.10 61 1007.7
20260505234503 53 349 4.0 11.0 0.02 0.10 0.10 61 1007.8
20260505234003 53 345 3.0 7.0 0.02 0.10 0.10 62 1007.7
20260505233503 53 309 2.0 8.0 0.02 0.10 0.10 62 1007.8
20260505233003 54 301 2.0 12.0 0.02 0.10 0.10 62 1007.8
20260505232714 54 292 3.0 13.0 0.02 0.10 0.10 62 1007.7
20260505232003 55 261 4.0 15.0 0.01 0.09 0.09 62 1007.5
20260505231503 56 257 6.0 15.0 0.01 0.09 0.09 62 1007.7
20260505231003 56 268 7.0 21.0 0.00 0.08 0.08 60 1007.4
20260505230503 57 277 7.0 21.0 0.00 0.08 0.08 59 1007.2
20260505230003 58 277 7.0 15.0 0.00 0.08 0.08 58 1007.1
20260505225503 58 273 6.0 15.0 0.00 0.08 0.08 58 1007.0
20260505225212 58 272 6.0 16.0 0.00 0.08 0.08 58 1007.0
20260505224503 59 267 6.0 16.0 0.00 0.08 0.08 57 1006.9
20260505224003 60 269 6.0 14.0 0.00 0.08 0.08 56 1006.7
20260505223503 60 268 6.0 15.0 0.00 0.08 0.08 55 1006.7
20260505223003 61 274 6.0 18.0 0.00 0.08 0.08 54 1006.6
20260505222503 62 307 5.0 18.0 0.00 0.08 0.08 54 1006.5
20260505222214 62 305 5.0 18.0 0.00 0.08 0.08 53 1006.5
20260505221503 62 268 3.0 13.0 0.00 0.08 0.08 54 1006.2
20260505221003 63 270 3.0 14.0 0.00 0.08 0.08 53 1006.0
20260505220503 63 277 5.0 14.0 0.00 0.08 0.08 53 1006.1
20260505220003 63 272 6.0 14.0 0.00 0.08 0.08 53 1006.0
20260505215503 64 271 4.0 14.0 0.00 0.08 0.08 52 1006.0
20260505215214 64 275 5.0 14.0 0.00 0.08 0.08 52 1005.9
20260505214503 64 273 4.0 14.0 0.00 0.08 0.08 51 1005.6
20260505214003 64 293 4.0 12.0 0.00 0.08 0.08 51 1005.6
20260505213503 65 290 5.0 17.0 0.00 0.08 0.08 51 1005.6
20260505213214 65 279 6.0 17.0 0.00 0.08 0.08 50 1005.5
20260505212713 66 275 6.0 17.0 0.00 0.08 0.08 49 1005.5
20260505212003 67 307 4.0 17.0 0.00 0.08 0.08 48 1005.3
20260505211503 67 329 3.0 10.0 0.00 0.08 0.08 48 1005.3
20260505211003 67 293 3.0 9.0 0.00 0.08 0.08 49 1005.1
20260505210503 67 255 3.0 9.0 0.00 0.08 0.08 47 1005.2
20260505210214 67 248 3.0 8.0 0.00 0.08 0.08 48 1005.3
20260505205503 67 249 4.0 12.0 0.00 0.08 0.08 48 1005.0
20260505205003 67 247 4.0 12.0 0.00 0.08 0.08 49 1004.9
20260505204503 67 244 4.0 12.0 0.00 0.08 0.08 49 1004.9
20260505204003 67 219 4.0 13.0 0.00 0.08 0.08 48 1004.9
20260505203503 67 190 4.0 13.0 0.00 0.08 0.08 48 1004.9
20260505203213 67 188 4.0 10.0 0.00 0.08 0.08 50 1004.9
20260505202503 67 179 4.0 13.0 0.01 0.08 0.08 50 1005.0
20260505202003 67 185 5.0 13.0 0.01 0.08 0.08 48 1005.1
20260505201503 67 201 4.0 11.0 0.01 0.08 0.08 50 1005.2
20260505201213 66 206 3.0 11.0 0.01 0.08 0.08 50 1005.3
20260505200503 66 203 4.0 12.0 0.01 0.08 0.08 51 1005.2
20260505200003 66 201 3.0 12.0 0.01 0.08 0.08 52 1005.2
20260505195503 65 218 2.0 12.0 0.01 0.08 0.08 51 1005.4
20260505195003 65 244 4.0 14.0 0.01 0.08 0.08 53 1005.3
20260505194503 65 243 4.0 14.0 0.01 0.08 0.08 52 1005.2
20260505194003 66 248 4.0 13.0 0.01 0.08 0.08 51 1005.3
20260505193714 66 256 5.0 13.0 0.01 0.08 0.08 50 1005.3
20260505193003 67 257 6.0 17.0 0.01 0.08 0.08 46 1005.1
20260505192503 68 253 5.0 12.0 0.00 0.07 0.07 43 1005.0
20260505192003 68 246 5.0 17.0 0.00 0.07 0.07 43 1005.0
20260505191503 69 254 5.0 19.0 0.00 0.07 0.07 43 1005.0
20260505191003 69 237 4.0 19.0 0.00 0.07 0.07 42 1004.9
20260505190503 70 206 5.0 11.0 0.00 0.07 0.07 42 1004.8
20260505190213 70 216 5.0 13.0 0.00 0.07 0.07 42 1004.8
20260505185503 71 208 4.0 13.0 0.00 0.07 0.07 42 1004.6
20260505185003 71 203 4.0 13.0 0.00 0.07 0.07 44 1004.6
20260505184503 71 203 5.0 14.0 0.00 0.07 0.07 48 1004.6
20260505184213 70 199 5.0 14.0 0.00 0.07 0.07 45 1004.6
20260505183714 70 198 5.0 14.0 0.00 0.07 0.07 45 1004.7
20260505183003 68 217 5.0 12.0 0.00 0.07 0.07 49 1004.9
20260505182503 68 218 5.0 17.0 0.00 0.07 0.07 47 1004.9
20260505182003 68 207 7.0 20.0 0.00 0.07 0.07 46 1004.9
20260505181503 68 190 8.0 20.0 0.00 0.07 0.07 47 1004.9
20260505181003 69 184 8.0 16.0 0.00 0.07 0.07 46 1004.9
20260505180503 68 183 7.0 18.0 0.00 0.07 0.07 52 1004.8
20260505180003 68 185 6.0 18.0 0.00 0.07 0.07 51 1004.7
20260505175503 67 191 7.0 16.0 0.00 0.07 0.07 50 1004.7
20260505175003 67 192 8.0 19.0 0.01 0.07 0.07 53 1004.6
20260505174503 66 178 8.0 19.0 0.01 0.07 0.07 52 1004.6
20260505174003 65 165 7.0 18.0 0.01 0.07 0.07 54 1004.7
20260505173713 65 152 7.0 17.0 0.01 0.07 0.07 57 1004.9
20260505173003 63 133 8.0 14.0 0.01 0.07 0.07 59 1004.8
20260505172503 62 150 7.0 14.0 0.01 0.07 0.07 59 1004.8
20260505172003 62 185 7.0 15.0 0.01 0.07 0.07 57 1005.0
20260505171503 62 196 7.0 15.0 0.01 0.07 0.07 57 1005.1
20260505171003 62 198 7.0 15.0 0.01 0.07 0.07 56 1005.1
20260505170503 62 210 8.0 19.0 0.01 0.07 0.07 55 1005.2
20260505170214 63 223 8.0 19.0 0.01 0.07 0.07 55 1005.1
20260505165713 64 236 9.0 20.0 0.01 0.07 0.07 53 1004.9
20260505165003 66 218 9.0 24.0 0.00 0.06 0.06 46 1004.7
20260505164503 68 205 10.0 27.0 0.00 0.06 0.06 43 1004.5
20260505164003 68 200 10.0 27.0 0.00 0.06 0.06 42 1004.5
20260505163713 68 198 10.0 27.0 0.00 0.06 0.06 41 1004.4
20260505163003 68 210 8.0 20.0 0.00 0.06 0.06 41 1004.4
20260505162713 68 220 7.0 16.0 0.00 0.06 0.06 42 1004.5
20260505162214 68 215 6.0 17.0 0.00 0.06 0.06 42 1004.6
20260505161503 68 205 10.0 24.0 0.00 0.06 0.06 41 1004.4
20260505161003 69 200 12.0 31.0 0.00 0.06 0.06 40 1004.4
20260505160503 69 198 12.0 31.0 0.00 0.06 0.06 39 1004.0
20260505153003 70 188 8.0 23.0 0.00 0.06 0.06 43 1003.6
20260505152503 70 196 8.0 17.0 0.00 0.06 0.06 44 1003.7
20260505152003 69 198 9.0 23.0 0.00 0.06 0.06 43 1003.8
20260505151712 69 197 11.0 23.0 0.00 0.06 0.06 42 1003.8
20260505151003 69 199 10.0 23.0 0.00 0.06 0.06 43 1004.0
20260505150503 69 198 9.0 21.0 0.00 0.06 0.06 45 1003.8
20260505140503 67 204 12.0 25.0 0.00 0.06 0.06 47 1003.7
20260505125003 65 187 8.0 20.0 0.00 0.06 0.06 48 1003.5
20260505124503 65 185 8.0 20.0 0.00 0.06 0.06 48 1003.6
20260505124212 65 189 9.0 20.0 0.00 0.06 0.06 48 1003.4
20260505123503 66 189 9.0 21.0 0.00 0.06 0.06 48 1003.4
20260505123003 65 186 9.0 21.0 0.00 0.06 0.06 48 1003.2
20260505122503 65 186 10.0 25.0 0.00 0.06 0.06 50 1003.4
20260505122003 64 192 10.0 25.0 0.00 0.06 0.06 49 1003.5
20260505121503 64 187 9.0 18.0 0.00 0.06 0.06 49 1003.4
20260505121003 64 177 8.0 17.0 0.00 0.06 0.06 49 1003.4
20260505120713 64 182 8.0 17.0 0.00 0.06 0.06 50 1003.4
20260505120003 64 170 11.0 23.0 0.00 0.06 0.06 51 1003.5
20260505115713 64 173 11.0 23.0 0.00 0.06 0.06 52 1003.6
20260505115003 63 177 10.0 21.0 0.00 0.06 0.06 51 1003.7
20260505114503 62 175 9.0 19.0 0.00 0.06 0.06 51 1003.6
20260505114003 62 179 8.0 19.0 0.00 0.06 0.06 52 1003.6
20260505113503 62 173 8.0 17.0 0.00 0.06 0.06 53 1003.4
20260505113003 62 167 8.0 15.0 0.00 0.06 0.06 53 1003.4
20260505112503 61 169 8.0 14.0 0.00 0.06 0.06 53 1003.4
20260505112003 61 174 8.0 18.0 0.00 0.06 0.06 54 1003.4
20260505111713 61 174 8.0 18.0 0.00 0.06 0.06 54 1003.4
20260505111003 60 169 7.0 14.0 0.00 0.06 0.06 54 1003.5
20260505110503 60 172 7.0 18.0 0.00 0.06 0.06 54 1003.2
20260505102214 59 184 5.0 15.0 0.00 0.06 0.06 55 1003.1
20260505101503 59 185 5.0 10.0 0.00 0.06 0.06 55 1003.1
20260505101003 59 180 6.0 12.0 0.00 0.06 0.06 55 1003.1
20260505100503 59 177 5.0 12.0 0.00 0.06 0.06 55 1003.0
20260505100003 59 178 4.0 10.0 0.00 0.06 0.06 55 1003.0
20260505095503 59 169 3.0 10.0 0.00 0.06 0.06 55 1003.0
20260505095213 59 169 4.0 9.0 0.00 0.06 0.06 55 1003.0
20260505094503 59 179 4.0 11.0 0.00 0.06 0.06 55 1002.9
20260505094003 58 181 3.0 8.0 0.00 0.06 0.06 55 1002.9
20260505093503 58 172 3.0 7.0 0.00 0.06 0.06 56 1002.9